• In Denmark
  • List of Countries
  • For 7 days
  • Water Temperature
  • Satellite Maps
  • Weather Map
  • Weather Widgets
  • user-avatar
    Login

    Hourly Weather Zlobovka

    Today, 18 July, Wednesday

    Time Temperature Precipitation Wind Pressure Humidity
    00:00 +19°C° 0 mm 4 mps 730 mmHg 88%
    01:00 +19°C° 0 mm 4 mps 730 mmHg 88%
    02:00 +19°C° 0 mm 4 mps 730 mmHg 89%
    03:00 +18°C° 0 mm 4 mps 730 mmHg 91%
    04:00 +19°C° 0 mm 4 mps 730 mmHg 89%
    05:00 +19°C° 0 mm 5 mps 730 mmHg 87%
    06:00 +20°C° 0 mm 5 mps 730 mmHg 86%
    07:00 +21°C° 0.2 mm 6 mps 730 mmHg 83%
    08:00 +21°C° 0.2 mm 6 mps 731 mmHg 79%
    09:00 +22°C° 0 mm 7 mps 731 mmHg 77%
    10:00 +22°C° 0.4 mm 7 mps 731 mmHg 75%
    11:00 +23°C° 0.4 mm 6 mps 731 mmHg 73%
    12:00 +23°C° 0.4 mm 6 mps 731 mmHg 71%
    13:00 +24°C° 0.4 mm 6 mps 732 mmHg 68%
    14:00 +24°C° 0.4 mm 6 mps 732 mmHg 66%
    15:00 +27°C° 0 mm 5 mps 732 mmHg 62%
    16:00 +27°C° 0.3 mm 5 mps 732 mmHg 64%
    17:00 +26°C° 0.3 mm 4 mps 732 mmHg 66%
    18:00 +26°C° 0.3 mm 4 mps 732 mmHg 68%
    19:00 +23°C° 0 mm 4 mps 732 mmHg 72%
    20:00 +22°C° 0 mm 3 mps 732 mmHg 75%
    21:00 +21°C° 0 mm 3 mps 733 mmHg 79%
    22:00 +20°C° 0 mm 3 mps 733 mmHg 80%
    23:00 +20°C° 0 mm 3 mps 733 mmHg 81%

    Tomorrow, 19 July, Thursday

    Time Temperature Precipitation Wind Pressure Humidity
    00:00 +19°C° 0 mm 3 mps 733 mmHg 82%
    01:00 +19°C° 0 mm 3 mps 733 mmHg 82%
    02:00 +19°C° 0 mm 3 mps 733 mmHg 83%
    03:00 +19°C° 0 mm 2 mps 733 mmHg 83%
    04:00 +19°C° 0 mm 3 mps 733 mmHg 81%
    05:00 +20°C° 0 mm 3 mps 734 mmHg 80%
    06:00 +20°C° 0 mm 3 mps 734 mmHg 79%
    07:00 +22°C° 0.2 mm 3 mps 734 mmHg 73%
    08:00 +25°C° 0.2 mm 4 mps 734 mmHg 68%
    09:00 +26°C° 0.2 mm 5 mps 734 mmHg 63%
    10:00 +27°C° 0.5 mm 5 mps 735 mmHg 60%
    11:00 +28°C° 0.5 mm 5 mps 735 mmHg 57%
    12:00 +29°C° 0.5 mm 5 mps 735 mmHg 53%
    13:00 +29°C° 0.4 mm 5 mps 735 mmHg 52%
    14:00 +29°C° 0.4 mm 5 mps 735 mmHg 51%
    15:00 +30°C° 0.4 mm 5 mps 735 mmHg 50%
    16:00 +30°C° 0.2 mm 4 mps 735 mmHg 53%
    17:00 +29°C° 0.2 mm 4 mps 735 mmHg 56%
    18:00 +29°C° 0.2 mm 3 mps 735 mmHg 58%
    19:00 +27°C° 0 mm 2 mps 735 mmHg 61%
    20:00 +26°C° 0 mm 2 mps 735 mmHg 64%
    21:00 +24°C° 0 mm 1 mps 735 mmHg 67%
    22:00 +24°C° 0.1 mm 1 mps 735 mmHg 67%
    23:00 +24°C° 0.1 mm 1 mps 735 mmHg 67%

    Day after tomorrow, 20 July, Friday

    Time Temperature Precipitation Wind Pressure Humidity
    00:00 +24°C° 0.1 mm 1 mps 735 mmHg 67%
    01:00 +23°C° 1.3 mm 1 mps 735 mmHg 71%
    02:00 +21°C° 1.3 mm 2 mps 735 mmHg 75%
    03:00 +21°C° 1.3 mm 2 mps 736 mmHg 79%
    04:00 +21°C° 0.2 mm 2 mps 736 mmHg 79%
    05:00 +21°C° 0.2 mm 2 mps 736 mmHg 78%
    06:00 +23°C° 0.2 mm 2 mps 736 mmHg 77%
    07:00 +24°C° 0.2 mm 2 mps 736 mmHg 72%
    08:00 +25°C° 0.2 mm 2 mps 736 mmHg 68%
    09:00 +27°C° 0.2 mm 3 mps 736 mmHg 63%
    10:00 +28°C° 0 mm 3 mps 736 mmHg 58%
    11:00 +30°C° 0 mm 3 mps 736 mmHg 52%
    12:00 +31°C° 0 mm 3 mps 736 mmHg 47%
    13:00 +33°C° 0 mm 3 mps 736 mmHg 45%
    14:00 +33°C° 0 mm 3 mps 736 mmHg 44%
    15:00 +33°C° 0 mm 3 mps 735 mmHg 42%
    16:00 +31°C° 0 mm 3 mps 735 mmHg 46%
    17:00 +30°C° 0 mm 3 mps 735 mmHg 51%
    18:00 +29°C° 0 mm 2 mps 735 mmHg 55%
    19:00 +28°C° 0.7 mm 3 mps 736 mmHg 61%
    20:00 +26°C° 0.7 mm 3 mps 736 mmHg 68%
    21:00 +24°C° 0.7 mm 3 mps 736 mmHg 74%
    22:00 +22°C° 1.4 mm 3 mps 736 mmHg 78%
    23:00 +23°C° 1.4 mm 2 mps 736 mmHg 82%

    21 July, Saturday

    Time Temperature Precipitation Wind Pressure Humidity
    00:00 +21°C° 1.4 mm 2 mps 736 mmHg 85%
    01:00 +22°C° 0.7 mm 1 mps 736 mmHg 85%
    02:00 +22°C° 0.7 mm 1 mps 736 mmHg 84%
    03:00 +22°C° 0.7 mm 1 mps 736 mmHg 84%
    04:00 +22°C° 0 mm 1 mps 736 mmHg 83%
    05:00 +23°C° 0 mm 1 mps 736 mmHg 82%
    06:00 +23°C° 0 mm 1 mps 736 mmHg 80%
    07:00 +25°C° 0.2 mm 1 mps 736 mmHg 74%
    08:00 +26°C° 0.2 mm 2 mps 736 mmHg 69%
    09:00 +27°C° 0.2 mm 2 mps 736 mmHg 63%
    10:00 +29°C° 0.3 mm 2 mps 736 mmHg 58%
    11:00 +30°C° 0.3 mm 2 mps 736 mmHg 53%
    12:00 +31°C° 0.3 mm 2 mps 736 mmHg 48%
    13:00 +31°C° 0.1 mm 2 mps 736 mmHg 47%
    14:00 +31°C° 0.1 mm 2 mps 736 mmHg 47%
    15:00 +32°C° 0.1 mm 2 mps 736 mmHg 47%
    16:00 +31°C° 0 mm 1 mps 736 mmHg 49%
    17:00 +31°C° 0 mm 1 mps 736 mmHg 51%
    18:00 +31°C° 0 mm 1 mps 736 mmHg 52%
    19:00 +29°C° 0.1 mm 1 mps 736 mmHg 55%
    20:00 +28°C° 0.1 mm 1 mps 736 mmHg 57%
    21:00 +26°C° 0.1 mm 1 mps 736 mmHg 59%
    22:00 +26°C° 0.7 mm 1 mps 736 mmHg 63%
    23:00 +25°C° 0.7 mm 1 mps 736 mmHg 68%

    22 July, Sunday

    Time Temperature Precipitation Wind Pressure Humidity
    00:00 +24°C° 0.7 mm 1 mps 736 mmHg 73%
    01:00 +23°C° 0.7 mm 2 mps 736 mmHg 77%
    02:00 +21°C° 0.7 mm 2 mps 736 mmHg 82%
    03:00 +21°C° 0.7 mm 2 mps 736 mmHg 86%
    04:00 +21°C° 0 mm 2 mps 736 mmHg 85%
    05:00 +23°C° 0 mm 2 mps 736 mmHg 83%
    06:00 +23°C° 0 mm 1 mps 736 mmHg 82%
    07:00 +25°C° 0.3 mm 1 mps 736 mmHg 75%
    08:00 +27°C° 0.3 mm 1 mps 736 mmHg 67%
    09:00 +28°C° 0.3 mm 1 mps 736 mmHg 60%
    10:00 +30°C° 0.1 mm 1 mps 736 mmHg 55%
    11:00 +31°C° 0.1 mm 1 mps 736 mmHg 50%
    12:00 +32°C° 0.1 mm 1 mps 736 mmHg 44%
    13:00 +32°C° 0 mm 1 mps 736 mmHg 45%
    14:00 +32°C° 0 mm 1 mps 736 mmHg 45%
    15:00 +32°C° 0 mm 1 mps 736 mmHg 46%
    16:00 +31°C° 0.1 mm 1 mps 736 mmHg 49%
    17:00 +31°C° 0.1 mm 2 mps 736 mmHg 53%
    18:00 +30°C° 0.1 mm 2 mps 736 mmHg 56%
    19:00 +28°C° 0.1 mm 2 mps 736 mmHg 61%
    20:00 +27°C° 0.1 mm 3 mps 736 mmHg 65%
    21:00 +25°C° 0.1 mm 3 mps 736 mmHg 70%
    22:00 +25°C° 0.5 mm 3 mps 736 mmHg 74%
    23:00 +24°C° 0.5 mm 3 mps 736 mmHg 78%

    23 July, Monday

    Time Temperature Precipitation Wind Pressure Humidity
    00:00 +22°C° 0.5 mm 3 mps 736 mmHg 82%
    01:00 +22°C° 0 mm 3 mps 736 mmHg 83%
    02:00 +22°C° 0 mm 3 mps 736 mmHg 84%
    03:00 +22°C° 0 mm 3 mps 736 mmHg 85%
    04:00 +22°C° 0 mm 3 mps 736 mmHg 85%
    05:00 +22°C° 0 mm 3 mps 736 mmHg 84%
    06:00 +22°C° 0 mm 3 mps 736 mmHg 83%
    07:00 +25°C° 0.5 mm 3 mps 736 mmHg 78%
    08:00 +26°C° 0.5 mm 4 mps 736 mmHg 73%
    09:00 +27°C° 0.5 mm 4 mps 736 mmHg 68%
    10:00 +28°C° 0.8 mm 4 mps 736 mmHg 64%
    11:00 +29°C° 0.8 mm 4 mps 736 mmHg 59%
    12:00 +30°C° 0.8 mm 4 mps 736 mmHg 55%
    13:00 +30°C° 0.2 mm 4 mps 736 mmHg 54%
    14:00 +32°C° 0.2 mm 4 mps 736 mmHg 54%
    15:00 +32°C° 0.2 mm 4 mps 736 mmHg 54%
    16:00 +30°C° 0.7 mm 4 mps 736 mmHg 58%
    17:00 +29°C° 0.7 mm 4 mps 736 mmHg 62%
    18:00 +28°C° 0.7 mm 4 mps 736 mmHg 66%
    19:00 +27°C° 0.9 mm 4 mps 737 mmHg 71%
    20:00 +25°C° 0.9 mm 4 mps 737 mmHg 76%
    21:00 +23°C° 0.9 mm 4 mps 737 mmHg 81%
    22:00 +22°C° 1.8 mm 4 mps 737 mmHg 82%
    23:00 +22°C° 1.8 mm 5 mps 737 mmHg 83%
    Show more